Left ArrowRight Arrow

40.92945, -100.16068

Hourly Observations for June 17, 2024

Temp ( °F °C ) Dew Point ( °F °C ) Humidity (%) Winds ( mph kmh ) Pressure ( in mb ) Visibility ( mi km ) Precip ( " mm )
12:15 am 00:15 Clear 81 27.2 70 21.1 69 69 SSE 13 20 29.50 999 10 16 0.00 0.00
12:35 am 00:35 Clear 82 27.5 70 21 68 68 SSE 22 35 29.48 998 10 16 0.00 0.00
12:55 am 00:55 Clear 81 27.1 70 21 69 69 S 22 35 29.48 998 10 16 0.00 0.00
1:15 am 01:15 Clear 81 27.1 69 20.6 68 68 S 18 30 29.49 999 10 16 0.00 0.00
1:35 am 01:35 Clear 80 26.9 69 20.5 68 68 S 18 30 29.51 999 10 16 0.00 0.00
1:55 am 01:55 Clear 80 26.5 68 20.2 68 68 S 21 33 29.50 999 10 16 0.00 0.00
2:15 am 02:15 Clear 80 26.4 68 20 68 68 S 18 30 29.50 999 10 16 0.00 0.00
2:35 am 02:35 Clear 79 26.2 67 19.7 67 67 S 18 30 29.50 999 10 16 0.00 0.00
2:55 am 02:55 Clear 79 26.1 67 19.6 67 67 S 10 17 29.52 1000 10 16 0.00 0.00
3:15 am 03:15 Partly Cloudy 74 23.6 64 18 71 71 N 15 24 29.59 1002 10 16 0.00 0.00
3:35 am 03:35 Mostly Cloudy 69 20.8 58 14.2 66 66 NNE 13 20 29.65 1004 10 16 0.00 0.00
3:55 am 03:55 Mostly Cloudy 65 18.6 51 10.5 59 59 NE 16 26 29.66 1004 10 16 0.00 0.00
4:15 am 04:15 Cloudy with Light Rain 63 17.3 51 10.5 64 64 NE 17 28 29.67 1005 10 16 0.00 0.00
4:35 am 04:35 Partly Cloudy with Light Rain 62 16.5 52 11.1 70 70 NE 14 22 29.67 1005 10 16 0.00 0.00
4:55 am 04:55 Mostly Cloudy with Light Rain 61 16 53 11.9 77 77 ENE 14 22 29.66 1004 10 16 0.00 0.00
5:15 am 05:15 Cloudy with Light Rain 61 16 54 12.4 79 79 E 16 26 29.66 1004 10 16 0.00 0.00
5:35 am 05:35 Partly Cloudy 61 16.2 54 12.1 77 77 E 17 28 29.64 1004 10 16 0.00 0.00
5:55 am 05:55 Partly Cloudy 62 16.7 55 13 79 79 E 12 19 29.65 1004 10 16 0.00 0.00
6:15 am 06:15 Mostly Cloudy 63 17.2 57 13.7 80 80 E 9 15 29.65 1004 10 16 0.00 0.00
6:35 am 06:35 Mostly Cloudy 64 17.8 58 14.6 82 82 E 12 19 29.63 1003 10 16 0.00 0.00
6:55 am 06:55 Partly Cloudy 66 18.7 60 15.7 83 83 E 13 20 29.62 1003 10 16 0.00 0.00
7:15 am 07:15 Partly Cloudy 67 19.2 62 16.4 84 84 E 10 17 29.62 1003 10 16 0.00 0.00
7:35 am 07:35 Partly Cloudy 67 19.3 62 16.7 85 85 E 12 19 29.62 1003 10 16 0.00 0.00
7:55 am 07:55 Partly Cloudy with Thunderstorms 68 20 63 17.2 84 84 E 16 26 29.60 1002 10 16 0.00 0.00
8:15 am 08:15 Mostly Cloudy with Thunderstorms 69 20.6 64 17.6 83 83 E 14 22 29.61 1003 10 16 0.00 0.00
8:35 am 08:35 Mostly Cloudy with Nearby Thunderstorms 67 19.4 65 18.1 92 92 ESE 13 20 29.62 1003 10 16 0.05 1.27
8:55 am 08:55 Mostly Cloudy 67 19.6 65 18.5 93 93 E 14 22 29.62 1003 10 16 0.05 1.27
9:15 am 09:15 Cloudy 68 20 66 19 94 94 E 15 24 29.61 1003 10 16 0.00 0.00
9:35 am 09:35 Cloudy 68 20.2 67 19.4 95 95 E 13 20 29.61 1003 10 16 0.00 0.00
9:55 am 09:55 Cloudy 69 20.3 67 19.4 95 95 E 14 22 29.61 1003 10 16 0.00 0.00
10:15 am 10:15 Cloudy with Nearby Thunderstorms 69 20.8 67 19.7 93 93 E 15 24 29.60 1002 10 16 0.00 0.00
10:35 am 10:35 Cloudy 70 21 68 19.8 93 93 E 15 24 29.60 1003 10 16 0.00 0.00
10:55 am 10:55 Cloudy 70 20.9 67 19.6 92 92 E 17 28 29.60 1002 10 16 0.00 0.00
11:15 am 11:15 Cloudy 70 21 67 19.6 92 92 E 16 26 29.59 1002 10 16 0.00 0.00
11:35 am 11:35 Cloudy 70 21.1 68 20 93 93 ESE 17 28 29.59 1002 10 16 0.00 0.00
11:55 am 11:55 Partly Cloudy 72 22.1 69 20.4 90 90 ESE 17 28 29.57 1001 10 16 0.00 0.00
12:15 pm 12:15 Partly Cloudy 73 22.5 69 20.5 88 88 E 14 22 29.56 1001 10 16 0.00 0.00
12:35 pm 12:35 Mostly Cloudy 76 24.6 71 21.9 85 85 ESE 16 26 29.53 1000 10 16 0.00 0.00
12:55 pm 12:55 Partly Cloudy 80 26.4 73 22.5 79 79 SE 16 26 29.50 999 10 16 0.00 0.00
1:15 pm 13:15 Mostly Cloudy 82 27.6 71 21.8 71 71 SSE 21 33 29.49 999 10 16 0.00 0.00
1:35 pm 13:35 Cloudy 82 28 71 21.6 68 68 SSE 20 31 29.47 998 10 16 0.00 0.00
1:55 pm 13:55 Cloudy 83 28.5 71 21.7 67 67 SSE 23 37 29.46 998 10 16 0.00 0.00
2:15 pm 14:15 Cloudy 84 28.9 70 21.3 64 64 SSE 20 31 29.44 997 10 16 0.00 0.00
2:35 pm 14:35 Mostly Cloudy 86 30.1 71 21.8 61 61 SSE 20 31 29.42 996 10 16 0.00 0.00
2:55 pm 14:55 Partly Cloudy 86 30.1 71 21.5 60 60 S 22 35 29.42 996 10 16 0.00 0.00
3:15 pm 15:15 Partly Cloudy 87 30.6 70 21.3 58 58 SSE 26 43 29.40 995 10 16 0.00 0.00
3:35 pm 15:35 Partly Cloudy 87 30.8 70 20.9 56 56 S 24 39 29.40 995 10 16 0.00 0.00
3:55 pm 15:55 Partly Cloudy 88 30.9 70 21.1 56 56 SSE 23 37 29.38 995 10 16 0.00 0.00
4:15 pm 16:15 Sunny 89 31.4 70 21.3 55 55 SSE 20 31 29.37 995 10 16 0.00 0.00
4:35 pm 16:35 Sunny 90 32 70 21.2 53 53 S 21 33 29.36 994 10 16 0.00 0.00
4:55 pm 16:55 Partly Cloudy 90 32.3 69 20.8 51 51 S 23 37 29.35 994 10 16 0.00 0.00
5:15 pm 17:15 Sunny 90 32.1 69 20.3 50 50 S 31 50 29.35 994 10 16 0.00 0.00
5:35 pm 17:35 Sunny 90 32 70 21.2 53 53 S 26 43 29.35 994 10 16 0.00 0.00
5:55 pm 17:55 Sunny 89 31.9 70 21.2 53 53 SSE 24 39 29.34 993 10 16 0.00 0.00
6:15 pm 18:15 Sunny 90 32 70 21 52 52 SSE 24 39 29.34 993 10 16 0.00 0.00
6:35 pm 18:35 Sunny 90 32.1 68 20 49 49 S 29 46 29.33 993 7 11 0.00 0.00
6:55 pm 18:55 Sunny 90 32 68 20.2 50 50 S 25 41 29.33 993 7 11 0.00 0.00
7:15 pm 19:15 Sunny 89 31.8 68 20 50 50 S 28 44 29.33 993 7 11 0.00 0.00
7:35 pm 19:35 Sunny 89 31.4 68 19.8 50 50 S 22 35 29.33 993 7 11 0.00 0.00
7:55 pm 19:55 Sunny 88 31.1 67 19.4 50 50 S 28 44 29.33 993 7 11 0.00 0.00
8:15 pm 20:15 Hazy 88 31 66 18.7 48 48 S 28 44 29.33 993 5 8 0.00 0.00
8:35 pm 20:35 Sunny 87 30.3 65 18.2 48 48 SSE 28 44 29.34 994 7 11 0.00 0.00
8:55 pm 20:55 Sunny 86 29.9 65 18.2 50 50 S 28 44 29.34 994 7 11 0.00 0.00
9:15 pm 21:15 Clear 85 29.7 65 18.1 50 50 SSE 23 37 29.34 994 7 11 0.00 0.00
9:35 pm 21:35 Clear 85 29.4 65 18.3 51 51 SSE 23 37 29.36 994 10 16 0.00 0.00
9:55 pm 21:55 Clear 83 28.5 66 19 56 56 SSE 26 43 29.36 994 10 16 0.00 0.00
10:15 pm 22:15 Clear 83 28.5 67 19.2 57 57 SSE 26 43 29.37 995 10 16 0.00 0.00
10:35 pm 22:35 Clear 83 28.3 67 19.4 59 59 SSE 25 41 29.39 995 10 16 0.00 0.00
10:55 pm 22:55 Clear 83 28.2 67 19.2 58 58 SSE 29 46 29.39 995 10 16 0.00 0.00
11:15 pm 23:15 Clear 82 27.8 67 19.2 60 60 SSE 25 41 29.39 995 10 16 0.00 0.00
11:35 pm 23:35 Clear 82 27.6 66 19.1 60 60 S 29 46 29.39 995 10 16 0.00 0.00
11:55 pm 23:55 Clear 81 27.2 66 19 61 61 S 32 52 29.39 995 10 16 0.00 0.00

Powered by Vaisala Xweather